Aérodrome :
LOGIN :

S'inscrire | Disclaimer

   EN    FR    IT 

 










Légende :    VFR   VFR Marginal   IFR   IFR Intensif   IFR Très Intensif
Visi : 
Plafond : 
>= 8 km
>= 3000ft
5 à 8 km
1000 à 3000 ft
1500m à 5 km
500 à 1000 ft
800 à 1500m
200 à 500 ft
< 800m
< 200 ft
Symboles :   Orages  Brouillard  Fortes neiges  Fortes précipitations  Vent > 20 kt
SIGMETs :   Divers  Orages  Givrage  Turbulence  Onde Orograph.  Cendres Volcan.







- Altitude de l'aérodrome : 1249 ft


ETSN - Neuburg AB

DERNIER METAR :
  • 192320Z 06003KT 0300 FG 08/08 Q1014 RED

METARs EXPIRÉS :
  • 192220Z 34002KT 0300 FG 07/07 Q1015 RED
  • 192140Z 32001KT 0400 BCFG 08/08 Q1015 RED
  • 192120Z 00000KT 1200 VCFG 09/09 Q1015 AMB
  • 192044Z 05001KT 0500 BCFG FEW280 09/09 Q1015 RED

TAF TAF ETSN
Valide du 19 à 23h jusqu'au 20 à 08h UTC


192200Z 1923/2008 VRB01KT 0200 FG VV001
TEMPO 1923/2008 VRB03KT 2000 VCFG SCT001
BECMG 2007/2008 21006KT 3000 BR SCT003 BKN180 BY ETGL
Pas de NOTAMs connus pour ce terrain.



MET'MAP, la Météo Aéronautique d'un coup d'oeil ! - Copyright ORBIFLY Décembre 2007 - Disclaimer

ORBIFLY MET'MAP TEAM :

Programmation & Développement : Alexandra Zaïnal
Conception & Développement : Baudouin d'Aumeries
Co-Programmation & Développement : Marc-Olivier Méhu
Soutien technique & logistique : Manuel Goepfert

Contact : metmap@orbifly.com




SOURCES & CREDITS :

   NOAA